Weather History for KONL - February, 2014

Change the Weather History Date:

Sunday, February 16, 2014

  Actual Average Record
Temperature  
Mean Temperature 32 °F -  
Max Temperature 40 °F 32 °F 66 °F (1961)
Min Temperature 23 °F 14 °F -21 °F (1979)
Degree Days  
Heating Degree Days 34    
Moisture  
Dew Point 25 °F    
Average Humidity 80    
Maximum Humidity 91    
Minimum Humidity 62    
Precipitation  
Precipitation 0.01 in - - ()
Sea Level Pressure  
Sea Level Pressure 29.87 in    
Wind  
Wind Speed 11 mph (SE)    
Max Wind Speed 29 mph    
Max Gust Speed 36 mph    
Visibility 7 miles    
Events Rain    
Averages and records for this station are not official NWS values.
T = Trace of Precipitation, MM = Missing Value Source: NWS Daily Summary

Daily Weather History Graph

Daily Weather History Graph

Search for Another Location

Airport or City:

Trip Planner

Search our weather history database for the weather conditions in past years. The results will help you decide how hot, cold, wet, or windy it might be!

Date:

Astronomy

Feb. 16, 2014 Rise Set
Actual Time 7:29 AM CST 6:08 PM CST
Civil Twilight 7:01 AM CST 6:37 PM CST
Nautical Twilight 6:28 AM CST 7:10 PM CST
Astronomical Twilight 5:55 AM CST 7:42 PM CST
Moon 8:10 PM CST (2/16) 7:57 AM CST (2/16)
Length of Visible Light 11h 36m
Length of Day
10h 38m
Full, 97% of the Moon is Illuminated
Feb 16
Full
Feb 22
Last Quarter
Mar 1
New
Mar 8
First Quarter
Mar 16
Full

Hourly Weather History & Observations

Time (CST) Temp. Windchill Dew Point Humidity Pressure Visibility Wind Dir Wind Speed Gust Speed Precip Events Conditions
12:15 AM 26.8 °F 18.5 °F 23.4 °F 87% 30.05 in 10.0 mi North 8.1 mph - N/A   Overcast
12:35 AM 26.1 °F 15.6 °F 22.8 °F 88% 30.06 in 10.0 mi NNW 11.5 mph - N/A   Overcast
12:55 AM 24.6 °F 15.8 °F 21.7 °F 89% 30.09 in 7.0 mi North 8.1 mph - N/A   Overcast
1:15 AM 24.3 °F 17.3 °F 21.7 °F 90% 30.08 in 7.0 mi NNW 5.8 mph - N/A   Overcast
1:35 AM 24.4 °F 18.6 °F 21.7 °F 89% 30.10 in 7.0 mi WNW 4.6 mph - N/A   Overcast
1:55 AM 24.3 °F 19.9 °F 21.7 °F 90% 30.09 in 7.0 mi NW 3.5 mph - N/A   Overcast
2:15 AM 24.4 °F - 21.9 °F 90% 30.08 in 7.0 mi Calm Calm - N/A   Overcast
2:35 AM 24.6 °F - 22.1 °F 90% 30.08 in 5.0 mi Calm Calm - N/A   Overcast
2:55 AM 24.4 °F - 22.1 °F 91% 30.09 in 7.0 mi Calm Calm - N/A   Overcast
3:15 AM 24.6 °F - 22.1 °F 90% 30.08 in 7.0 mi Calm Calm - N/A   Overcast
3:35 AM 24.6 °F 20.3 °F 22.1 °F 90% 30.06 in 4.0 mi NE 3.5 mph - N/A   Overcast
3:55 AM 24.6 °F 18.8 °F 22.1 °F 90% 30.05 in 5.0 mi NE 4.6 mph - N/A   Overcast
4:15 AM 24.6 °F 20.3 °F 22.1 °F 90% 30.05 in 4.0 mi ENE 3.5 mph - N/A   Overcast
4:35 AM 24.4 °F 17.5 °F 22.1 °F 91% 30.04 in 2.5 mi East 5.8 mph - N/A   Overcast
4:55 AM 24.6 °F 17.7 °F 22.1 °F 90% 30.03 in 3.0 mi East 5.8 mph - N/A   Overcast
5:15 AM 24.6 °F 17.7 °F 22.1 °F 90% 30.03 in 3.0 mi ESE 5.8 mph - N/A   Overcast
5:35 AM 24.6 °F 17.7 °F 22.1 °F 90% 30.02 in 3.0 mi ESE 5.8 mph - N/A   Overcast
5:55 AM 24.4 °F 16.5 °F 21.9 °F 90% 30.01 in 3.0 mi East 6.9 mph - N/A   Overcast
6:15 AM 24.3 °F 17.3 °F 21.9 °F 91% 30.02 in 2.5 mi East 5.8 mph - N/A   Overcast
6:35 AM 24.1 °F 16.0 °F 21.7 °F 91% 30.02 in 2.5 mi East 6.9 mph - N/A   Overcast
6:55 AM 23.9 °F 15.8 °F 21.4 °F 90% 30.02 in 3.0 mi ESE 6.9 mph - N/A   Overcast
7:15 AM 23.9 °F 14.2 °F 21.2 °F 89% 30.02 in 3.0 mi ESE 9.2 mph - N/A   Overcast
7:35 AM 23.7 °F 13.3 °F 21.2 °F 90% 30.00 in 2.0 mi ESE 10.4 mph - N/A   Overcast
7:55 AM 23.7 °F 14.0 °F 21.2 °F 90% 30.00 in 1.2 mi ESE 9.2 mph - N/A   Overcast
8:15 AM 23.9 °F 13.5 °F 21.6 °F 91% 30.00 in 1.2 mi SE 10.4 mph - N/A   Overcast
8:35 AM 24.6 °F 15.1 °F 22.1 °F 90% 30.00 in 2.0 mi SE 9.2 mph - N/A   Overcast
8:55 AM 25.0 °F 14.2 °F 22.5 °F 90% 30.00 in 1.8 mi SE 11.5 mph - N/A   Overcast
9:15 AM 25.2 °F 14.4 °F 22.6 °F 90% 29.99 in 0.8 mi SE 11.5 mph - N/A   Overcast
9:35 AM 25.2 °F 13.9 °F 22.8 °F 91% 29.98 in 0.8 mi SE 12.7 mph - N/A   Overcast
9:55 AM 25.2 °F 15.1 °F 22.8 °F 91% 29.97 in 1.0 mi SE 10.4 mph - N/A   Overcast
10:15 AM 25.7 °F 15.1 °F 23.2 °F 90% 29.97 in 2.5 mi SE 11.5 mph - N/A   Overcast
10:35 AM 25.7 °F 14.0 °F 23.0 °F 89% 29.95 in 2.5 mi SE 13.8 mph - N/A   Overcast
10:55 AM 26.4 °F 16.0 °F 23.7 °F 90% 29.94 in 4.0 mi SSE 11.5 mph 16.1 mph N/A   Overcast
11:15 AM 27.1 °F 16.9 °F 24.6 °F 90% 29.93 in 7.0 mi SE 11.5 mph - N/A   Overcast
11:35 AM 28.2 °F 15.5 °F 25.5 °F 90% 29.91 in 10.0 mi SSE 18.4 mph - N/A   Overcast
11:55 AM 29.1 °F 16.4 °F 25.9 °F 88% 29.90 in 10.0 mi SSE 19.6 mph 24.2 mph N/A   Overcast
12:15 PM 31.6 °F 19.3 °F 25.3 °F 78% 29.88 in 10.0 mi SSE 20.7 mph 26.5 mph N/A   Overcast
12:35 PM 34.0 °F 21.8 °F 25.5 °F 71% 29.86 in 10.0 mi SSE 23.0 mph 27.6 mph N/A   Mostly Cloudy
12:55 PM 35.4 °F 24.6 °F 25.5 °F 67% 29.84 in 10.0 mi SSE 19.6 mph 29.9 mph N/A   Scattered Clouds
1:15 PM 36.3 °F 25.2 °F 25.3 °F 64% 29.82 in 10.0 mi SSE 21.9 mph 28.8 mph N/A   Clear
1:35 PM 36.5 °F 24.4 °F 25.2 °F 64% 29.78 in 10.0 mi SSE 26.5 mph 34.5 mph N/A   Clear
1:55 PM 36.1 °F 24.7 °F 25.3 °F 65% 29.78 in 10.0 mi SSE 23.0 mph 33.4 mph N/A   Scattered Clouds
2:15 PM 36.9 °F 24.9 °F 25.5 °F 64% 29.77 in 10.0 mi SSE 26.5 mph 33.4 mph N/A   Scattered Clouds
2:35 PM 37.0 °F 26.2 °F 26.2 °F 65% 29.78 in 10.0 mi SSE 21.9 mph 35.7 mph N/A   Scattered Clouds
2:55 PM 36.7 °F 25.4 °F 26.4 °F 66% 29.75 in 10.0 mi SSE 23.0 mph 32.2 mph N/A   Scattered Clouds
3:15 PM 38.5 °F 26.6 °F 26.8 °F 63% 29.72 in 10.0 mi SSE 28.8 mph 33.4 mph N/A   Clear
3:35 PM 39.2 °F 28.3 °F 27.1 °F 62% 29.72 in 10.0 mi SSE 25.3 mph 29.9 mph N/A   Clear
3:55 PM 39.7 °F 28.8 °F 27.5 °F 62% 29.73 in 10.0 mi South 26.5 mph 33.4 mph N/A   Clear
4:15 PM 38.8 °F 28.8 °F 27.5 °F 64% 29.73 in 10.0 mi South 20.7 mph 27.6 mph N/A   Clear
4:35 PM 39.2 °F 28.7 °F 27.7 °F 63% 29.71 in 10.0 mi SSE 23.0 mph 33.4 mph N/A   Clear
4:55 PM 40.1 °F 29.9 °F 28.4 °F 63% 29.70 in 10.0 mi SSE 23.0 mph 28.8 mph N/A   Clear
5:15 PM 39.9 °F 30.2 °F 28.4 °F 63% 29.70 in 10.0 mi South 20.7 mph 31.1 mph N/A   Clear
5:35 PM 40.1 °F 30.2 °F 28.4 °F 63% 29.70 in 10.0 mi South 21.9 mph 27.6 mph N/A   Clear
5:55 PM 39.2 °F 30.5 °F 28.4 °F 65% 29.72 in 10.0 mi SSE 16.1 mph 25.3 mph N/A   Clear
6:15 PM 38.3 °F 28.7 °F 28.4 °F 68% 29.70 in 10.0 mi SSE 18.4 mph 24.2 mph N/A   Clear
6:35 PM 37.8 °F 28.0 °F 28.4 °F 69% 29.70 in 10.0 mi SSE 18.4 mph 26.5 mph N/A   Clear
6:55 PM 37.0 °F 28.1 °F 28.2 °F 70% 29.70 in 10.0 mi SSE 15.0 mph 24.2 mph N/A   Clear
7:15 PM 37.4 °F 27.5 °F 28.6 °F 70% 29.69 in 10.0 mi SSE 18.4 mph 25.3 mph N/A   Clear
7:35 PM 37.6 °F 26.6 °F 28.8 °F 70% 29.68 in 10.0 mi SSE 23.0 mph 34.5 mph N/A   Clear
7:55 PM 36.5 °F 24.9 °F 28.4 °F 72% 29.67 in 10.0 mi SSE 24.2 mph 29.9 mph N/A   Clear
8:15 PM 36.0 °F 25.3 °F 28.4 °F 74% 29.67 in 10.0 mi SSE 19.6 mph 28.8 mph N/A   Clear
8:35 PM 35.6 °F 24.0 °F 28.4 °F 75% 29.66 in 10.0 mi SSE 23.0 mph 29.9 mph N/A   Clear
8:55 PM 35.6 °F 24.5 °F 28.8 °F 76% 29.65 in 10.0 mi SSE 20.7 mph 27.6 mph N/A   Clear
9:15 PM 36.5 °F 25.4 °F 29.3 °F 75% 29.65 in 10.0 mi South 21.9 mph 25.3 mph N/A   Clear
9:35 PM 36.5 °F 27.4 °F 29.3 °F 75% 29.69 in 10.0 mi South 15.0 mph 23.0 mph N/A   Clear
9:55 PM 36.9 °F 27.1 °F 29.8 °F 76% 29.68 in 10.0 mi South 17.3 mph 21.9 mph N/A   Scattered Clouds
10:15 PM 37.8 °F 29.8 °F 30.2 °F 74% 29.70 in 10.0 mi SSW 12.7 mph - N/A   Overcast
10:35 PM 38.1 °F 30.2 °F 32.0 °F 79% 29.69 in 7.0 mi South 12.7 mph - N/A Rain Light Rain
10:55 PM 38.7 °F 29.5 °F 32.2 °F 78% 29.68 in 10.0 mi South 17.3 mph 21.9 mph N/A Rain Light Rain
11:15 PM 38.5 °F 30.3 °F 32.9 °F 80% 29.68 in 10.0 mi South 13.8 mph 20.7 mph 0.01 in Rain Light Rain
11:35 PM 38.5 °F 29.6 °F 32.9 °F 80% 29.67 in 10.0 mi South 16.1 mph - 0.01 in Rain Light Rain
11:55 PM 38.7 °F 29.8 °F 32.9 °F 80% 29.66 in 10.0 mi South 16.1 mph 21.9 mph 0.01 in   Overcast